Location: Newark
(9.4667°S, 159.8167°E)
Time: 01:57:50
(UTC+00:00)

Vanguard 1 - Pass Details

Date: 19 November 2019
Orbit: 652 x 3831 km, 34.3° (Epoch: 07 December)

Event Time Altitude Azimuth Distance (km) Brightness Sun altitude
Rises 10:47:07 0° 275° (W) 4,378 13.8 -45.2°
Reaches altitude 10° 10:49:46 10° 267° (W) 3,723 13.4 -45.7°
Maximum altitude 10:59:22 42° 199° (SSW) 2,977 12.5 -47.5°
Drops below altitude 10° 11:16:13 10° 133° (SE) 6,318 14.1 -50.4°
Sets 11:22:33 0° 127° (SE) 7,687 14.6 -51.4°
